| time (UTC) | temp F | wind direction | speed MPH | gust MPH | rain 1hr in | rain 24hr in | rain mn in | humidity % | barometer mb |
| 20260506140320 | 69 | 133 | 2.0 | 7.0 | 0.00 | 0.00 | 0.00 | 66 | 1009.9 |
| 20260506135344 | 69 | 89 | 2.0 | 10.0 | 0.00 | 0.00 | 0.00 | 68 | 1009.8 |
| 20260506134316 | 68 | 220 | 2.0 | 8.0 | 0.00 | 0.00 | 0.00 | 69 | 1009.7 |
| 20260506133326 | 67 | 134 | 1.0 | 8.0 | 0.00 | 0.00 | 0.00 | 71 | 1009.8 |
| 20260506132323 | 67 | 108 | 1.0 | 6.0 | 0.00 | 0.00 | 0.00 | 71 | 1009.8 |
| 20260506131319 | 67 | 323 | 1.0 | 6.0 | 0.00 | 0.00 | 0.00 | 72 | 1009.8 |
| 20260506130339 | 67 | 357 | 1.0 | 9.0 | 0.00 | 0.00 | 0.00 | 72 | 1010.0 |
| 20260506125334 | 67 | 340 | 3.0 | 9.0 | 0.00 | 0.00 | 0.00 | 72 | 1010.2 |
| 20260506124311 | 67 | 133 | 1.0 | 9.0 | 0.00 | 0.00 | 0.00 | 72 | 1009.9 |
| 20260506123322 | 67 | 35 | 1.0 | 10.0 | 0.00 | 0.00 | 0.00 | 73 | 1009.9 |
| 20260506122319 | 67 | 135 | 2.0 | 11.0 | 0.00 | 0.00 | 0.00 | 74 | 1009.8 |
| 20260506121315 | 66 | 328 | 1.0 | 8.0 | 0.00 | 0.00 | 0.00 | 75 | 1009.8 |
| 20260506120333 | 66 | 5 | 2.0 | 8.0 | 0.00 | 0.00 | 0.00 | 75 | 1009.8 |
| 20260506115328 | 65 | 144 | 2.0 | 8.0 | 0.00 | 0.00 | 0.00 | 77 | 1009.8 |
| 20260506114347 | 65 | 323 | 1.0 | 7.0 | 0.00 | 0.00 | 0.00 | 78 | 1009.7 |
| 20260506113316 | 64 | 225 | 1.0 | 12.0 | 0.00 | 0.00 | 0.00 | 78 | 1009.8 |
| 20260506112313 | 64 | 193 | 1.0 | 7.0 | 0.00 | 0.00 | 0.00 | 79 | 1009.8 |
| 20260506111310 | 64 | 328 | 2.0 | 6.0 | 0.00 | 0.00 | 0.00 | 79 | 1009.8 |
| 20260506110311 | 64 | 130 | 2.0 | 9.0 | 0.00 | 0.00 | 0.00 | 80 | 1009.8 |
| 20260506105344 | 64 | 313 | 1.0 | 8.0 | 0.00 | 0.00 | 0.00 | 80 | 1009.7 |
| 20260506104323 | 64 | 27 | 1.0 | 4.0 | 0.00 | 0.00 | 0.00 | 81 | 1009.7 |
| 20260506103318 | 64 | 318 | 1.0 | 9.0 | 0.00 | 0.00 | 0.00 | 81 | 1009.6 |
| 20260506102315 | 63 | 122 | 0.0 | 7.0 | 0.00 | 0.00 | 0.00 | 81 | 1009.7 |
| 20260506101315 | 63 | 352 | 1.0 | 8.0 | 0.00 | 0.00 | 0.00 | 82 | 1009.6 |
| 20260506100311 | 63 | 354 | 1.0 | 10.0 | 0.00 | 0.00 | 0.00 | 82 | 1009.7 |
| 20260506095310 | 63 | 143 | 0.0 | 6.0 | 0.00 | 0.00 | 0.00 | 81 | 1009.8 |
| 20260506094330 | 63 | 77 | 1.0 | 5.0 | 0.00 | 0.00 | 0.00 | 81 | 1009.7 |
| 20260506093313 | 64 | 148 | 3.0 | 6.0 | 0.00 | 0.00 | 0.00 | 81 | 1009.6 |
| 20260506092332 | 64 | 131 | 0.0 | 5.0 | 0.00 | 0.00 | 0.00 | 80 | 1009.6 |
| 20260506091347 | 64 | 236 | 2.0 | 7.0 | 0.00 | 0.00 | 0.00 | 80 | 1009.6 |
| 20260506090322 | 64 | 324 | 0.0 | 5.0 | 0.00 | 0.00 | 0.00 | 79 | 1009.7 |
| 20260506085324 | 65 | 9 | 1.0 | 12.0 | 0.00 | 0.00 | 0.00 | 79 | 1009.8 |
| 20260506084326 | 65 | 150 | 0.0 | 4.0 | 0.00 | 0.00 | 0.00 | 80 | 1009.7 |
| 20260506083346 | 64 | 106 | 0.0 | 5.0 | 0.00 | 0.00 | 0.00 | 80 | 1009.8 |
| 20260506082322 | 64 | 114 | 1.0 | 8.0 | 0.00 | 0.00 | 0.00 | 80 | 1009.9 |
| 20260506081316 | 64 | 13 | 0.0 | 5.0 | 0.00 | 0.00 | 0.00 | 80 | 1010.0 |
| 20260506080320 | 64 | 127 | 1.0 | 6.0 | 0.00 | 0.00 | 0.00 | 80 | 1010.0 |
| 20260506073317 | 65 | 118 | 2.0 | 5.0 | 0.00 | 0.00 | 0.00 | 79 | 1009.9 |
| 20260506072318 | 65 | 158 | 1.0 | 5.0 | 0.00 | 0.00 | 0.00 | 79 | 1010.0 |
| 20260506071319 | 65 | 110 | 1.0 | 6.0 | 0.00 | 0.00 | 0.00 | 78 | 1009.9 |
| 20260506070312 | 65 | 284 | 1.0 | 8.0 | 0.00 | 0.00 | 0.00 | 78 | 1010.0 |
| 20260506062345 | 66 | 125 | 0.0 | 4.0 | 0.00 | 0.00 | 0.00 | 77 | 1010.3 |
| 20260506061351 | 66 | 41 | 0.0 | 2.0 | 0.00 | 0.00 | 0.00 | 76 | 1010.2 |
| 20260506060325 | 66 | 54 | 0.0 | 2.0 | 0.00 | 0.00 | 0.00 | 76 | 1010.3 |
| 20260506051332 | 67 | 105 | 0.0 | 5.0 | 0.00 | 0.00 | 0.00 | 72 | 1010.6 |
| 20260506050331 | 67 | 158 | 1.0 | 5.0 | 0.00 | 0.00 | 0.00 | 72 | 1010.7 |
| 20260506044325 | 67 | 139 | 0.0 | 6.0 | 0.00 | 0.00 | 0.00 | 71 | 1010.9 |
| 20260506043325 | 67 | 147 | 2.0 | 7.0 | 0.00 | 0.00 | 0.00 | 70 | 1010.8 |
| 20260506042325 | 67 | 157 | 1.0 | 5.0 | 0.00 | 0.00 | 0.00 | 69 | 1010.8 |
| 20260506041317 | 68 | 287 | 2.0 | 4.0 | 0.00 | 0.00 | 0.00 | 69 | 1010.9 |
| 20260506040318 | 68 | 136 | 0.0 | 6.0 | 0.00 | 0.00 | 0.00 | 68 | 1010.7 |
| 20260506035311 | 68 | 183 | 1.0 | 7.0 | 0.00 | 0.00 | 0.00 | 67 | 1010.8 |
| 20260506034340 | 68 | 317 | 1.0 | 5.0 | 0.00 | 0.00 | 0.00 | 67 | 1010.7 |
| 20260506033313 | 68 | 122 | 1.0 | 10.0 | 0.00 | 0.00 | 0.00 | 66 | 1010.6 |
| 20260506032317 | 69 | 311 | 1.0 | 5.0 | 0.00 | 0.00 | 0.00 | 65 | 1010.6 |
| 20260506031311 | 69 | 147 | 3.0 | 9.0 | 0.00 | 0.00 | 0.00 | 64 | 1010.7 |
| 20260506030311 | 69 | 125 | 1.0 | 7.0 | 0.00 | 0.00 | 0.00 | 63 | 1010.7 |
| 20260506025313 | 69 | 136 | 1.0 | 6.0 | 0.00 | 0.00 | 0.00 | 63 | 1010.8 |
| 20260506024333 | 69 | 1 | 1.0 | 6.0 | 0.00 | 0.00 | 0.00 | 63 | 1010.8 |
| 20260506023311 | 69 | 146 | 1.0 | 4.0 | 0.00 | 0.00 | 0.00 | 62 | 1010.8 |
| 20260506022319 | 69 | 136 | 2.0 | 9.0 | 0.00 | 0.00 | 0.00 | 62 | 1010.8 |
| 20260506021315 | 70 | 66 | 1.0 | 6.0 | 0.00 | 0.00 | 0.00 | 61 | 1010.8 |
| 20260506020340 | 70 | 143 | 0.0 | 3.0 | 0.00 | 0.00 | 0.00 | 60 | 1010.8 |
| 20260506015321 | 71 | 190 | 2.0 | 9.0 | 0.00 | 0.00 | 0.00 | 59 | 1010.7 |
| 20260506014325 | 71 | 192 | 1.0 | 5.0 | 0.00 | 0.00 | 0.00 | 57 | 1010.7 |
| 20260506013322 | 72 | 148 | 3.0 | 6.0 | 0.00 | 0.00 | 0.00 | 55 | 1010.5 |
| 20260506012325 | 72 | 103 | 2.0 | 9.0 | 0.00 | 0.00 | 0.00 | 53 | 1010.4 |
| 20260506011348 | 72 | 160 | 2.0 | 9.0 | 0.00 | 0.00 | 0.00 | 52 | 1010.3 |
| 20260506010324 | 73 | 129 | 0.0 | 6.0 | 0.00 | 0.00 | 0.00 | 51 | 1010.2 |
| 20260506005324 | 73 | 116 | 0.0 | 7.0 | 0.00 | 0.00 | 0.00 | 49 | 1010.0 |
| 20260506004309 | 74 | 141 | 0.0 | 5.0 | 0.00 | 0.00 | 0.00 | 46 | 1010.0 |
| 20260506003321 | 75 | 2 | 1.0 | 6.0 | 0.00 | 0.00 | 0.00 | 44 | 1009.9 |
| 20260506002352 | 75 | 348 | 0.0 | 7.0 | 0.00 | 0.00 | 0.00 | 44 | 1009.7 |
| 20260506001353 | 76 | 273 | 0.0 | 5.0 | 0.00 | 0.00 | 0.00 | 43 | 1009.6 |
| 20260506000309 | 76 | 183 | 2.0 | 7.0 | 0.00 | 0.00 | 0.00 | 43 | 1009.5 |
| 20260505235309 | 76 | 178 | 1.0 | 8.0 | 0.00 | 0.00 | 0.00 | 42 | 1009.4 |
| 20260505234326 | 77 | 129 | 2.0 | 8.0 | 0.00 | 0.00 | 0.00 | 42 | 1009.4 |
| 20260505233308 | 77 | 321 | 1.0 | 9.0 | 0.00 | 0.00 | 0.00 | 43 | 1009.4 |
| 20260505232330 | 77 | 321 | 1.0 | 6.0 | 0.00 | 0.00 | 0.00 | 43 | 1009.2 |
| 20260505231311 | 77 | 3 | 0.0 | 6.0 | 0.00 | 0.00 | 0.00 | 43 | 1009.1 |
| 20260505230308 | 78 | 301 | 1.0 | 7.0 | 0.00 | 0.00 | 0.00 | 42 | 1009.1 |
| 20260505225326 | 78 | 146 | 3.0 | 7.0 | 0.00 | 0.00 | 0.00 | 41 | 1009.1 |
| 20260505224325 | 78 | 316 | 1.0 | 11.0 | 0.00 | 0.00 | 0.00 | 41 | 1009.1 |
| 20260505223319 | 79 | 326 | 1.0 | 13.0 | 0.00 | 0.00 | 0.00 | 41 | 1009.1 |
| 20260505222320 | 80 | 152 | 2.0 | 13.0 | 0.00 | 0.00 | 0.00 | 39 | 1008.9 |
| 20260505221321 | 80 | 158 | 1.0 | 10.0 | 0.00 | 0.00 | 0.00 | 37 | 1009.1 |
| 20260505220324 | 80 | 267 | 4.0 | 15.0 | 0.00 | 0.00 | 0.00 | 36 | 1009.0 |
| 20260505215318 | 81 | 118 | 2.0 | 12.0 | 0.00 | 0.00 | 0.00 | 36 | 1009.0 |
| 20260505214323 | 81 | 289 | 4.0 | 14.0 | 0.00 | 0.00 | 0.00 | 34 | 1008.7 |
| 20260505213325 | 82 | 214 | 1.0 | 14.0 | 0.00 | 0.00 | 0.00 | 33 | 1008.8 |
| 20260505212328 | 82 | 326 | 3.0 | 13.0 | 0.00 | 0.00 | 0.00 | 32 | 1008.9 |
| 20260505211314 | 83 | 88 | 3.0 | 6.0 | 0.00 | 0.00 | 0.00 | 31 | 1008.8 |
| 20260505210339 | 83 | 14 | 2.0 | 10.0 | 0.00 | 0.00 | 0.00 | 31 | 1009.0 |
| 20260505205321 | 83 | 183 | 1.0 | 11.0 | 0.00 | 0.00 | 0.00 | 30 | 1008.7 |
| 20260505204313 | 84 | 181 | 2.0 | 9.0 | 0.00 | 0.00 | 0.00 | 29 | 1008.7 |
| 20260505203315 | 84 | 17 | 4.0 | 11.0 | 0.00 | 0.00 | 0.00 | 28 | 1008.7 |
| 20260505202307 | 84 | 131 | 2.0 | 11.0 | 0.00 | 0.00 | 0.00 | 27 | 1008.8 |
| 20260505201333 | 85 | 32 | 2.0 | 14.0 | 0.00 | 0.00 | 0.00 | 27 | 1008.6 |
| 20260505200308 | 85 | 160 | 3.0 | 13.0 | 0.00 | 0.00 | 0.00 | 28 | 1008.8 |
| 20260505195329 | 84 | 77 | 2.0 | 13.0 | 0.00 | 0.00 | 0.00 | 28 | 1008.7 |
| 20260505194329 | 84 | 259 | 5.0 | 18.0 | 0.00 | 0.00 | 0.00 | 29 | 1008.7 |
| 20260505193322 | 85 | 300 | 2.0 | 9.0 | 0.00 | 0.00 | 0.00 | 30 | 1008.9 |
| 20260505192342 | 84 | 134 | 1.0 | 14.0 | 0.00 | 0.00 | 0.00 | 31 | 1009.0 |
| 20260505191319 | 84 | 56 | 2.0 | 10.0 | 0.00 | 0.00 | 0.00 | 34 | 1009.1 |
| 20260505190314 | 84 | 240 | 2.0 | 8.0 | 0.00 | 0.00 | 0.00 | 33 | 1009.2 |
| 20260505185309 | 84 | 133 | 4.0 | 16.0 | 0.00 | 0.00 | 0.00 | 33 | 1009.4 |
| 20260505184312 | 85 | 326 | 2.0 | 12.0 | 0.00 | 0.00 | 0.00 | 36 | 1009.7 |
| 20260505183333 | 85 | 30 | 3.0 | 10.0 | 0.00 | 0.00 | 0.00 | 36 | 1009.7 |
| 20260505182328 | 84 | 345 | 2.0 | 8.0 | 0.00 | 0.00 | 0.00 | 35 | 1009.8 |
| 20260505181347 | 84 | 311 | 2.0 | 9.0 | 0.00 | 0.00 | 0.00 | 35 | 1010.2 |
| 20260505180321 | 83 | 129 | 2.0 | 11.0 | 0.00 | 0.00 | 0.00 | 36 | 1010.0 |
| 20260505175318 | 84 | 152 | 2.0 | 11.0 | 0.00 | 0.00 | 0.00 | 37 | 1010.2 |
| 20260505174318 | 83 | 141 | 2.0 | 7.0 | 0.00 | 0.00 | 0.00 | 39 | 1010.3 |
| 20260505173313 | 83 | 346 | 4.0 | 13.0 | 0.00 | 0.00 | 0.00 | 39 | 1010.4 |
| 20260505172312 | 83 | 138 | 2.0 | 6.0 | 0.00 | 0.00 | 0.00 | 40 | 1010.5 |
| 20260505171311 | 82 | 217 | 2.0 | 9.0 | 0.00 | 0.00 | 0.00 | 39 | 1010.7 |
| 20260505170325 | 82 | 187 | 4.0 | 14.0 | 0.00 | 0.00 | 0.00 | 39 | 1010.7 |
| 20260505165324 | 82 | 144 | 2.0 | 6.0 | 0.00 | 0.00 | 0.00 | 39 | 1010.7 |
| 20260505164326 | 82 | 96 | 1.0 | 9.0 | 0.00 | 0.00 | 0.00 | 43 | 1010.9 |
| 20260505163322 | 81 | 163 | 2.0 | 7.0 | 0.00 | 0.00 | 0.00 | 40 | 1010.8 |
| 20260505162350 | 81 | 120 | 2.0 | 7.0 | 0.00 | 0.00 | 0.00 | 41 | 1011.0 |
| 20260505161324 | 81 | 124 | 2.0 | 9.0 | 0.00 | 0.00 | 0.00 | 41 | 1011.0 |
| 20260505160311 | 82 | 142 | 2.0 | 6.0 | 0.00 | 0.00 | 0.00 | 39 | 1011.1 |
| 20260505153319 | 82 | 176 | 1.0 | 8.0 | 0.00 | 0.00 | 0.00 | 42 | 1011.5 |
| 20260505152314 | 80 | 56 | 1.0 | 6.0 | 0.00 | 0.00 | 0.00 | 45 | 1011.5 |
| 20260505151310 | 79 | 288 | 0.0 | 7.0 | 0.00 | 0.00 | 0.00 | 46 | 1011.5 |
| 20260505150326 | 78 | 146 | 2.0 | 9.0 | 0.00 | 0.00 | 0.00 | 44 | 1011.4 |